Погода в Дулесовом

Россия / Удмуртская Республика     56°32′57″N   53°46′54″E
темп.,
°C
ветер,
м/с
пор.,
м/с
влажн.,
%
обл.,
%
осадки,
мм/ч
давл.,
гПа
погр.,
м
19 апреля, пн
пн1901:000всв6125164 0.0 1030574
04:00−1всв5125042 0.0 1031553
07:000всв6114513 0.0 1032752
10:00+3в710271 0.0 10321310
13:00+6в79230 0.0 10321657
16:00+6в67240 0.0 10321747
19:00+4всв48360 0.0 1032232
22:000всв39510 0.0 1033175
20 апреля, вт
вт2001:00−1в26540 0.0 1034108
04:00−1в23540 0.0 103555
07:00+1вюв24455 0.0 1035181
10:00+5юв34295 0.0 10351115
13:00+8юв23270 0.0 10341422
16:00+9юв12260 0.0 10331423
19:00+7юв12380 0.0 103211
22:00+3юв22470 0.0 103211
21 апреля, ср
ср2101:00+2вюв22510 0.0 103210
04:00+1юв22535 0.0 103210
07:00+3юв265078 0.0 1032191
10:00+8юв583787 0.0 1030806
13:00+11ююв6932100 0.0 10291371
16:00+12ююв6932100 0.0 10281548
19:00+9ююв51140100 0.0 1027444
22:00+8ююв41247100 0.0 1027365
22 апреля, чт
чт2201:00+7ю51149100 0.0 1027455
04:00+5ю41168100 0.0 1028780
07:00+5ююв71280100 0.1 1027857
10:00+4ююв61295100 0.4 1028840
13:00+4ю61196100 0.2 1028799
16:00+6ююв61176100 0.2 1028770
19:00+5ю61085100 0.0 1029542
22:00+4ю5994100 0.0 1029462
23 апреля, пт
пт2301:00+3ю4894100 0.0 1028483
04:00+3ююв4797100 0.1 1028398
07:00+3ююв3697100 0.1 1029414
10:00+3ю2597100 0.1 1029393
13:00+4ююв2395100 0.0 1029342
16:00+5юв239187 0.0 1029344
19:00+6вюв238641 0.0 1028156
22:00+3в2292100 0.0 102814